{"data":{"norad_id":61915,"epoch":"2026-05-24T15:52:08.226912Z","epoch_age_seconds":94584,"freshness":"FRESH","line1":"1 61915U 24207D   26144.66120633  .00008686  00000+0  32480-3 0  9998","line2":"2 61915  42.9994 212.4630 0001875 276.4445  83.6193 15.27580086 86345","mean_motion":15.27580086,"eccentricity":0.0001875,"inclination_deg":42.9994,"raan_deg":212.463,"arg_perigee_deg":276.4445,"mean_anomaly_deg":83.6193,"bstar":0.0003248,"rev_number":8634,"period_min":94.266743406604,"perigee_km":481.76236618,"apogee_km":484.33531086945,"semimajor_km":6861.1858385247,"source":"CELESTRAK","updated_at":"2026-05-25T13:38:19.480477Z"}}